• In Hungary
  • List of Countries
  • For 7 days
  • Water Temperature
  • Satellite Maps
  • Weather Map
  • News
  • Weather Widgets
  • user-avatar
    Login

    Hourly Weather Plachawy

    Today, 20 November, Monday

    Time Temperature Precipitation Wind Pressure Humidity
    00:00 -1°C° 0 mm 4 mps 730 mmHg 88%
    01:00 -2°C° 0 mm 4 mps 730 mmHg 89%
    02:00 -1°C° 0.3 mm 4 mps 730 mmHg 90%
    03:00 -1°C° 0.3 mm 4 mps 730 mmHg 91%
    04:00 0°C° 0.3 mm 3 mps 731 mmHg 92%
    05:00 -1°C° 1.2 mm 5 mps 731 mmHg 90%
    06:00 -2°C° 1.2 mm 6 mps 732 mmHg 88%
    07:00 -1°C° 1.2 mm 7 mps 733 mmHg 86%
    08:00 -1°C° 0.4 mm 7 mps 733 mmHg 83%
    09:00 -1°C° 0.4 mm 7 mps 734 mmHg 79%
    10:00 -1°C° 0.4 mm 7 mps 734 mmHg 76%
    11:00 -1°C° 0 mm 7 mps 735 mmHg 75%
    12:00 -1°C° 0 mm 6 mps 735 mmHg 74%
    13:00 -1°C° 0 mm 6 mps 736 mmHg 73%
    14:00 -1°C° 0 mm 5 mps 736 mmHg 74%
    15:00 -1°C° 0 mm 4 mps 736 mmHg 76%
    16:00 -1°C° 0 mm 4 mps 736 mmHg 78%
    17:00 -1°C° 0 mm 3 mps 737 mmHg 80%
    18:00 -1°C° 0 mm 3 mps 737 mmHg 81%
    19:00 -1°C° 0 mm 3 mps 737 mmHg 83%
    20:00 -2°C° 0 mm 3 mps 737 mmHg 85%
    21:00 -2°C° 0 mm 3 mps 737 mmHg 87%
    22:00 -3°C° 0 mm 2 mps 737 mmHg 89%
    23:00 -3°C° 0 mm 2 mps 737 mmHg 89%

    Tomorrow, 21 November, Tuesday

    Time Temperature Precipitation Wind Pressure Humidity
    00:00 -3°C° 0 mm 2 mps 737 mmHg 89%
    01:00 -3°C° 0 mm 2 mps 737 mmHg 90%
    02:00 -3°C° 0 mm 2 mps 737 mmHg 89%
    03:00 -3°C° 0 mm 2 mps 737 mmHg 89%
    04:00 -3°C° 0 mm 2 mps 737 mmHg 89%
    05:00 -3°C° 0 mm 2 mps 737 mmHg 88%
    06:00 -1°C° 0 mm 1 mps 737 mmHg 88%
    07:00 -1°C° 0 mm 1 mps 737 mmHg 87%
    08:00 0°C° 0 mm 1 mps 738 mmHg 85%
    09:00 +1°C° 0 mm 1 mps 738 mmHg 82%
    10:00 +2°C° 0 mm 1 mps 738 mmHg 79%
    11:00 +2°C° 0 mm 1 mps 738 mmHg 78%
    12:00 +3°C° 0 mm 1 mps 738 mmHg 77%
    13:00 +3°C° 0 mm 1 mps 738 mmHg 76%
    14:00 +2°C° 0 mm 1 mps 738 mmHg 79%
    15:00 +1°C° 0 mm 1 mps 739 mmHg 82%
    16:00 +1°C° 0 mm 1 mps 739 mmHg 85%
    17:00 -1°C° 0 mm 0 mps 739 mmHg 86%
    18:00 -1°C° 0 mm 0 mps 739 mmHg 86%
    19:00 -1°C° 0 mm 0 mps 739 mmHg 87%
    20:00 -1°C° 0 mm 0 mps 739 mmHg 87%
    21:00 -1°C° 0 mm 0 mps 740 mmHg 87%
    22:00 -1°C° 0 mm 0 mps 740 mmHg 88%
    23:00 0°C° 0 mm 1 mps 740 mmHg 88%

    Day after tomorrow, 22 November, Wednesday

    Time Temperature Precipitation Wind Pressure Humidity
    00:00 0°C° 0 mm 1 mps 740 mmHg 88%
    01:00 0°C° 0 mm 1 mps 740 mmHg 88%
    02:00 -1°C° 0 mm 1 mps 740 mmHg 88%
    03:00 -1°C° 0 mm 1 mps 740 mmHg 88%
    04:00 -3°C° 0 mm 2 mps 740 mmHg 88%
    05:00 -2°C° 0 mm 2 mps 740 mmHg 86%
    06:00 -2°C° 0 mm 3 mps 740 mmHg 85%
    07:00 -2°C° 0 mm 3 mps 740 mmHg 83%
    08:00 -2°C° 0.1 mm 4 mps 740 mmHg 82%
    09:00 -2°C° 0.1 mm 4 mps 740 mmHg 80%
    10:00 -1°C° 0.1 mm 5 mps 740 mmHg 79%
    11:00 -1°C° 0.3 mm 5 mps 740 mmHg 80%
    12:00 -1°C° 0.3 mm 5 mps 739 mmHg 82%
    13:00 -2°C° 0.3 mm 6 mps 739 mmHg 83%
    14:00 -2°C° 0.2 mm 6 mps 739 mmHg 85%
    15:00 -1°C° 0.2 mm 5 mps 739 mmHg 87%
    16:00 -1°C° 0.2 mm 5 mps 739 mmHg 90%
    17:00 -1°C° 0.1 mm 5 mps 739 mmHg 91%
    18:00 -1°C° 0.1 mm 4 mps 739 mmHg 93%
    19:00 0°C° 0.1 mm 4 mps 739 mmHg 95%
    20:00 0°C° 0.1 mm 4 mps 739 mmHg 96%
    21:00 0°C° 0.1 mm 4 mps 739 mmHg 96%
    22:00 0°C° 0.1 mm 4 mps 739 mmHg 97%
    23:00 0°C° 0 mm 4 mps 739 mmHg 97%

    23 November, Thursday

    Time Temperature Precipitation Wind Pressure Humidity
    00:00 0°C° 0 mm 4 mps 739 mmHg 97%
    01:00 0°C° 0 mm 4 mps 739 mmHg 96%
    02:00 0°C° 0 mm 4 mps 739 mmHg 96%
    03:00 0°C° 0 mm 4 mps 739 mmHg 95%
    04:00 0°C° 0 mm 4 mps 739 mmHg 94%
    05:00 0°C° 0 mm 4 mps 739 mmHg 93%
    06:00 0°C° 0 mm 4 mps 739 mmHg 92%
    07:00 0°C° 0 mm 5 mps 739 mmHg 90%
    08:00 0°C° 0 mm 5 mps 739 mmHg 87%
    09:00 +1°C° 0 mm 5 mps 739 mmHg 84%
    10:00 +2°C° 0 mm 5 mps 739 mmHg 81%
    11:00 +3°C° 0 mm 5 mps 739 mmHg 80%
    12:00 +3°C° 0 mm 5 mps 739 mmHg 79%
    13:00 +5°C° 0 mm 5 mps 739 mmHg 78%
    14:00 +4°C° 0 mm 4 mps 740 mmHg 80%
    15:00 +4°C° 0 mm 4 mps 740 mmHg 83%
    16:00 +3°C° 0 mm 4 mps 740 mmHg 86%
    17:00 +3°C° 0 mm 4 mps 741 mmHg 87%
    18:00 +4°C° 0 mm 4 mps 741 mmHg 87%
    19:00 +4°C° 0 mm 4 mps 741 mmHg 88%
    20:00 +4°C° 0 mm 4 mps 742 mmHg 90%
    21:00 +4°C° 0 mm 4 mps 742 mmHg 91%
    22:00 +4°C° 0 mm 4 mps 742 mmHg 92%
    23:00 +4°C° 0 mm 3 mps 743 mmHg 93%

    24 November, Friday

    Time Temperature Precipitation Wind Pressure Humidity
    00:00 +3°C° 0 mm 3 mps 743 mmHg 94%
    01:00 +3°C° 0 mm 3 mps 743 mmHg 94%
    02:00 +3°C° 0 mm 3 mps 744 mmHg 95%
    03:00 +3°C° 0 mm 3 mps 744 mmHg 95%
    04:00 +3°C° 0 mm 3 mps 744 mmHg 96%
    05:00 +3°C° 0 mm 3 mps 744 mmHg 96%
    06:00 +4°C° 0 mm 2 mps 744 mmHg 96%
    07:00 +4°C° 0 mm 2 mps 745 mmHg 96%
    08:00 +3°C° 0 mm 3 mps 745 mmHg 95%
    09:00 +4°C° 0 mm 3 mps 745 mmHg 94%
    10:00 +5°C° 0 mm 3 mps 745 mmHg 93%
    11:00 +7°C° 0 mm 3 mps 745 mmHg 91%
    12:00 +7°C° 0 mm 3 mps 745 mmHg 89%
    13:00 +8°C° 0 mm 3 mps 745 mmHg 88%
    14:00 +7°C° 0 mm 3 mps 745 mmHg 90%
    15:00 +5°C° 0 mm 3 mps 745 mmHg 91%
    16:00 +5°C° 0 mm 3 mps 745 mmHg 93%
    17:00 +5°C° 0 mm 3 mps 745 mmHg 93%
    18:00 +4°C° 0 mm 3 mps 745 mmHg 93%
    19:00 +4°C° 0 mm 3 mps 745 mmHg 93%
    20:00 +4°C° 0 mm 3 mps 745 mmHg 93%
    21:00 +4°C° 0 mm 3 mps 746 mmHg 92%
    22:00 +4°C° 0 mm 3 mps 746 mmHg 92%
    23:00 +4°C° 0 mm 3 mps 746 mmHg 92%

    25 November, Saturday

    Time Temperature Precipitation Wind Pressure Humidity
    00:00 +4°C° 0 mm 3 mps 746 mmHg 91%
    01:00 +4°C° 0 mm 3 mps 746 mmHg 91%
    02:00 +4°C° 0 mm 3 mps 745 mmHg 90%
    03:00 +4°C° 0 mm 3 mps 745 mmHg 90%
    04:00 +4°C° 0 mm 3 mps 745 mmHg 89%
    05:00 +4°C° 0 mm 3 mps 745 mmHg 89%
    06:00 +3°C° 0 mm 3 mps 745 mmHg 88%
    07:00 +3°C° 0 mm 3 mps 745 mmHg 88%
    08:00 +4°C° 0 mm 4 mps 745 mmHg 83%
    09:00 +5°C° 0 mm 4 mps 745 mmHg 78%
    10:00 +6°C° 0 mm 4 mps 745 mmHg 73%
    11:00 +6°C° 0 mm 4 mps 745 mmHg 71%
    12:00 +7°C° 0 mm 4 mps 745 mmHg 69%
    13:00 +7°C° 0 mm 5 mps 744 mmHg 67%
    14:00 +7°C° 0 mm 5 mps 744 mmHg 71%
    15:00 +6°C° 0 mm 5 mps 744 mmHg 75%
    16:00 +6°C° 0 mm 5 mps 744 mmHg 79%
    17:00 +6°C° 0 mm 5 mps 744 mmHg 80%
    18:00 +5°C° 0 mm 5 mps 744 mmHg 81%
    19:00 +5°C° 0 mm 5 mps 744 mmHg 81%
    20:00 +5°C° 0 mm 5 mps 744 mmHg 82%
    21:00 +5°C° 0 mm 5 mps 744 mmHg 82%
    22:00 +5°C° 0 mm 5 mps 744 mmHg 82%
    23:00 +5°C° 0 mm 5 mps 744 mmHg 84%
    Show more